STARLINK-30074 (57508 NORAD) Tracking and Keplerian Element Data

This shows tracking and keplerian element data for the satellite.

Feedback or suggestion? Click here.




ElementValue
Catalog57508
NameSTARLINK-30074
Epoch Orbit417
Epoch Day239.16667824
Epoch Year2023
RAAN10.7199
Inclination43.0008
Eccentricity0.0001532
Argument of Perigee234.4601
Mean Anonmoly233.0196
Mean Motion15.50314392
Decay Rate-0.01575987
L11 57508U 23113P 23239.16667824 -.01575987 00000+0 -30098-1 0 9998
L22 57508 43.0008 10.7199 0001532 234.4601 233.0196 15.50314392 4179



Live tracking and technical data element details for STARLINK-30074 (NORAD 57508). STARLINK-30074 can be tracked NOW for your location showing map with azimuth and elevation plus other details from your city location.







IsCatalogInMostPopularTable: catalog: 57508, numindb: 6
Update: records affected: 1



GetName: 57508 STARLINK-30074

Hit Count: updated at: Tue, 26 Sep 2023 12:42:38 GMT